Time,TemperatureF,DewpointF,PressureIn,WindDirection,WindDirectionDegrees,WindSpeedMPH,WindSpeedGustMPH,Humidity,HourlyPrecipIn,Conditions,Clouds,dailyrainin,SoftwareType,DateUTC
2013-09-17 00:12:00,45.2,40.0,30.27,North,360,5.0,10.0,81,0.00,,,0.07,weatherlink.com 1.10,2013-09-17 04:12:00,
2013-09-17 00:27:00,45.2,39.0,30.27,NNW,333,5.0,10.0,79,0.00,,,0.07,weatherlink.com 1.10,2013-09-17 04:27:00,
2013-09-17 00:42:00,45.0,39.0,30.28,NNW,335,3.0,10.0,78,0.00,,,0.07,weatherlink.com 1.10,2013-09-17 04:42:00,
2013-09-17 00:57:00,44.7,39.0,30.28,North,360,1.0,7.0,79,0.00,,,0.07,weatherlink.com 1.10,2013-09-17 04:57:00,
2013-09-17 01:12:00,44.5,39.0,30.29,North,360,0.0,5.0,81,0.00,,,0.07,weatherlink.com 1.10,2013-09-17 05:12:00,
2013-09-17 01:27:00,44.4,39.0,30.29,NW,309,7.0,8.0,81,0.00,,,0.07,weatherlink.com 1.10,2013-09-17 05:27:00,
2013-09-17 01:42:00,43.8,39.0,30.29,West,276,3.0,6.0,83,0.00,,,0.07,weatherlink.com 1.10,2013-09-17 05:42:00,
2013-09-17 01:57:00,43.3,39.0,30.29,NW,318,3.0,4.0,85,0.00,,,0.07,weatherlink.com 1.10,2013-09-17 05:57:00,
2013-09-17 02:12:00,42.3,39.0,30.29,NW,304,2.0,4.0,87,0.00,,,0.07,weatherlink.com 1.10,2013-09-17 06:12:00,
2013-09-17 02:27:00,41.6,38.0,30.30,NNW,327,0.0,2.0,88,0.00,,,0.07,weatherlink.com 1.10,2013-09-17 06:27:00,
2013-09-17 02:42:00,40.7,38.0,30.30,North,5,0.0,3.0,90,0.00,,,0.07,weatherlink.com 1.10,2013-09-17 06:42:00,
2013-09-17 02:57:00,39.9,37.0,30.31,NE,38,0.0,3.0,90,0.00,,,0.07,weatherlink.com 1.10,2013-09-17 06:57:00,
2013-09-17 03:12:00,39.2,37.0,30.31,NE,38,1.0,2.0,91,0.00,,,0.07,weatherlink.com 1.10,2013-09-17 07:12:00,
2013-09-17 03:27:00,38.7,37.0,30.31,NE,38,0.0,2.0,92,0.00,,,0.07,weatherlink.com 1.10,2013-09-17 07:27:00,
2013-09-17 03:42:00,38.4,37.0,30.31,ENE,60,0.0,3.0,93,0.00,,,0.07,weatherlink.com 1.10,2013-09-17 07:42:00,
2013-09-17 03:57:00,38.0,36.0,30.31,NE,40,3.0,3.0,93,0.00,,,0.07,weatherlink.com 1.10,2013-09-17 07:57:00,
2013-09-17 04:12:00,37.8,36.0,30.32,North,5,3.0,4.0,93,0.00,,,0.00,weatherlink.com 1.10,2013-09-17 08:12:00,
2013-09-17 04:28:00,37.8,36.0,30.32,North,360,2.0,4.0,94,0.00,,,0.00,weatherlink.com 1.10,2013-09-17 08:28:00,
2013-09-17 04:43:00,37.5,36.0,30.32,NE,54,0.0,3.0,93,0.00,,,0.00,weatherlink.com 1.10,2013-09-17 08:43:00,
2013-09-17 05:13:00,36.4,35.0,30.33,NE,54,0.0,2.0,93,0.00,,,0.00,weatherlink.com 1.10,2013-09-17 09:13:00,
2013-09-17 05:28:00,36.1,35.0,30.34,NE,54,0.0,1.0,94,0.00,,,0.00,weatherlink.com 1.10,2013-09-17 09:28:00,
2013-09-17 05:43:00,35.7,34.0,30.34,ESE,105,0.0,3.0,94,0.00,,,0.00,weatherlink.com 1.10,2013-09-17 09:43:00,
2013-09-17 05:58:00,35.4,34.0,30.35,NNE,19,0.0,2.0,94,0.00,,,0.00,weatherlink.com 1.10,2013-09-17 09:58:00,
2013-09-17 06:13:00,35.2,34.0,30.36,ENE,63,2.0,3.0,95,0.00,,,0.00,weatherlink.com 1.10,2013-09-17 10:13:00,
2013-09-17 06:28:00,35.5,34.0,30.36,North,350,2.0,4.0,95,0.00,,,0.00,weatherlink.com 1.10,2013-09-17 10:28:00,
2013-09-17 06:43:00,35.6,34.0,30.38,WNW,292,1.0,4.0,95,0.00,,,0.00,weatherlink.com 1.10,2013-09-17 10:43:00,
2013-09-17 06:58:00,35.7,34.0,30.38,North,355,1.0,3.0,94,0.00,,,0.00,weatherlink.com 1.10,2013-09-17 10:58:00,
2013-09-17 07:13:00,35.6,34.0,30.39,NNW,333,1.0,2.0,95,0.00,,,0.00,weatherlink.com 1.10,2013-09-17 11:13:00,
2013-09-17 07:28:00,36.3,35.0,30.39,North,355,2.0,4.0,94,0.00,,,0.00,weatherlink.com 1.10,2013-09-17 11:28:00,
2013-09-17 07:43:00,37.5,36.0,30.40,NNE,13,3.0,5.0,94,0.00,,,0.00,weatherlink.com 1.10,2013-09-17 11:43:00,
2013-09-17 07:58:00,38.6,37.0,30.40,NNE,28,0.0,5.0,93,0.00,,,0.00,weatherlink.com 1.10,2013-09-17 11:58:00,
2013-09-17 08:13:00,40.3,38.0,30.40,North,360,0.0,5.0,91,0.00,,,0.00,weatherlink.com 1.10,2013-09-17 12:13:00,
2013-09-17 08:28:00,42.7,38.0,30.41,NNE,24,1.0,6.0,82,0.00,,,0.00,weatherlink.com 1.10,2013-09-17 12:28:00,
2013-09-17 08:43:00,44.6,38.0,30.41,West,279,4.0,5.0,78,0.00,,,0.00,weatherlink.com 1.10,2013-09-17 12:43:00,
2013-09-17 08:58:00,45.3,37.0,30.42,NNW,340,2.0,5.0,74,0.00,,,0.00,weatherlink.com 1.10,2013-09-17 12:58:00,
2013-09-17 09:14:00,46.5,38.0,30.43,SSW,198,2.0,5.0,72,0.00,,,0.00,weatherlink.com 1.10,2013-09-17 13:14:00,
2013-09-17 09:29:00,47.4,38.0,30.43,West,274,2.0,6.0,69,0.00,,,0.00,weatherlink.com 1.10,2013-09-17 13:29:00,
2013-09-17 09:44:00,48.0,37.0,30.43,SSW,192,0.0,5.0,66,0.00,,,0.00,weatherlink.com 1.10,2013-09-17 13:44:00,
2013-09-17 09:59:00,49.7,37.0,30.43,NNE,32,3.0,5.0,62,0.00,,,0.00,weatherlink.com 1.10,2013-09-17 13:59:00,
2013-09-17 10:14:00,49.4,36.0,30.43,NNE,26,2.0,9.0,61,0.00,,,0.00,weatherlink.com 1.10,2013-09-17 14:14:00,
2013-09-17 10:29:00,50.5,38.0,30.43,ESE,105,2.0,6.0,62,0.00,,,0.00,weatherlink.com 1.10,2013-09-17 14:29:00,
2013-09-17 10:44:00,51.0,37.0,30.43,NE,37,2.0,7.0,60,0.00,,,0.00,weatherlink.com 1.10,2013-09-17 14:44:00,
2013-09-17 10:59:00,50.8,39.0,30.43,West,271,1.0,8.0,65,0.00,,,0.00,weatherlink.com 1.10,2013-09-17 14:59:00,
2013-09-17 11:14:00,52.1,38.0,30.43,NNE,27,5.0,10.0,60,0.00,,,0.00,weatherlink.com 1.10,2013-09-17 15:14:00,
2013-09-17 11:29:00,52.1,38.0,30.42,NNE,31,1.0,8.0,59,0.00,,,0.00,weatherlink.com 1.10,2013-09-17 15:29:00,
2013-09-17 11:44:00,53.7,39.0,30.42,ENE,74,1.0,7.0,57,0.00,,,0.00,weatherlink.com 1.10,2013-09-17 15:44:00,
2013-09-17 11:59:00,54.5,39.0,30.41,SSE,158,0.0,5.0,56,0.00,,,0.00,weatherlink.com 1.10,2013-09-17 15:59:00,
2013-09-17 12:14:00,54.9,37.0,30.41,NNE,32,4.0,6.0,52,0.00,,,0.00,weatherlink.com 1.10,2013-09-17 16:14:00,
2013-09-17 12:29:00,55.4,35.0,30.40,ESE,109,2.0,10.0,47,0.00,,,0.00,weatherlink.com 1.10,2013-09-17 16:29:00,
2013-09-17 12:44:00,55.5,35.0,30.40,ENE,67,7.0,9.0,47,0.00,,,0.00,weatherlink.com 1.10,2013-09-17 16:44:00,
2013-09-17 12:59:00,56.4,35.0,30.40,East,85,5.0,10.0,44,0.00,,,0.00,weatherlink.com 1.10,2013-09-17 16:59:00,
2013-09-17 13:14:00,57.4,36.0,30.40,South,186,2.0,7.0,45,0.00,,,0.00,weatherlink.com 1.10,2013-09-17 17:14:00,
2013-09-17 13:29:00,57.3,35.0,30.39,ESE,120,4.0,9.0,44,0.00,,,0.00,weatherlink.com 1.10,2013-09-17 17:29:00,
2013-09-17 13:44:00,57.9,36.0,30.38,NNE,30,1.0,9.0,44,0.00,,,0.00,weatherlink.com 1.10,2013-09-17 17:44:00,
2013-09-17 13:59:00,57.8,37.0,30.37,NE,44,4.0,8.0,46,0.00,,,0.00,weatherlink.com 1.10,2013-09-17 17:59:00,
2013-09-17 14:14:00,58.3,36.0,30.37,NNW,342,1.0,10.0,43,0.00,,,0.00,weatherlink.com 1.10,2013-09-17 18:14:00,
2013-09-17 14:29:00,59.3,38.0,30.37,East,84,6.0,7.0,46,0.00,,,0.00,weatherlink.com 1.10,2013-09-17 18:29:00,
2013-09-17 14:44:00,59.8,35.0,30.37,East,85,3.0,9.0,40,0.00,,,0.00,weatherlink.com 1.10,2013-09-17 18:44:00,
2013-09-17 14:59:00,60.6,38.0,30.36,NE,44,0.0,5.0,43,0.00,,,0.00,weatherlink.com 1.10,2013-09-17 18:59:00,
2013-09-17 15:15:00,61.1,36.0,30.36,SW,221,1.0,3.0,40,0.00,,,0.00,weatherlink.com 1.10,2013-09-17 19:15:00,
2013-09-17 15:30:00,60.7,37.0,30.35,WSW,255,2.0,5.0,42,0.00,,,0.00,weatherlink.com 1.10,2013-09-17 19:30:00,
2013-09-17 15:45:00,61.3,37.0,30.35,NNW,333,5.0,7.0,40,0.00,,,0.00,weatherlink.com 1.10,2013-09-17 19:45:00,
2013-09-17 16:00:00,61.4,37.0,30.34,SW,216,4.0,5.0,41,0.00,,,0.00,weatherlink.com 1.10,2013-09-17 20:00:00,
2013-09-17 16:15:00,61.0,37.0,30.34,NNW,337,2.0,7.0,41,0.00,,,0.00,weatherlink.com 1.10,2013-09-17 20:15:00,
2013-09-17 16:30:00,61.6,37.0,30.34,WSW,238,2.0,6.0,41,0.00,,,0.00,weatherlink.com 1.10,2013-09-17 20:30:00,
2013-09-17 16:45:00,61.5,39.0,30.34,WNW,296,6.0,6.0,43,0.00,,,0.00,weatherlink.com 1.10,2013-09-17 20:45:00,
2013-09-17 17:00:00,61.1,38.0,30.34,North,9,2.0,4.0,43,0.00,,,0.00,weatherlink.com 1.10,2013-09-17 21:00:00,
2013-09-17 17:15:00,61.3,38.0,30.34,NNE,16,1.0,6.0,43,0.00,,,0.00,weatherlink.com 1.10,2013-09-17 21:15:00,
2013-09-17 17:30:00,61.5,39.0,30.33,East,81,1.0,4.0,43,0.00,,,0.00,weatherlink.com 1.10,2013-09-17 21:30:00,
2013-09-17 17:45:00,61.7,41.0,30.34,West,273,1.0,3.0,46,0.00,,,0.00,weatherlink.com 1.10,2013-09-17 21:45:00,
2013-09-17 18:00:00,59.8,42.0,30.34,WNW,286,1.0,3.0,52,0.00,,,0.00,weatherlink.com 1.10,2013-09-17 22:00:00,
2013-09-17 18:15:00,57.6,42.0,30.34,WNW,286,1.0,2.0,57,0.00,,,0.00,weatherlink.com 1.10,2013-09-17 22:15:00,
2013-09-17 18:30:00,55.5,42.0,30.33,WNW,285,0.0,2.0,62,0.00,,,0.00,weatherlink.com 1.10,2013-09-17 22:30:00,
2013-09-17 18:45:00,54.0,43.0,30.33,WNW,285,0.0,1.0,66,0.00,,,0.00,weatherlink.com 1.10,2013-09-17 22:45:00,
2013-09-17 19:00:00,52.5,43.0,30.33,North,350,0.0,2.0,71,0.00,,,0.00,weatherlink.com 1.10,2013-09-17 23:00:00,
2013-09-17 19:15:00,50.3,43.0,30.33,East,83,1.0,3.0,75,0.00,,,0.00,weatherlink.com 1.10,2013-09-17 23:15:00,
2013-09-17 19:30:00,48.9,43.0,30.33,East,84,1.0,2.0,79,0.00,,,0.00,weatherlink.com 1.10,2013-09-17 23:30:00,
2013-09-17 19:45:00,47.8,43.0,30.34,East,84,1.0,2.0,82,0.00,,,0.00,weatherlink.com 1.10,2013-09-17 23:45:00,
2013-09-17 20:00:00,46.5,42.0,30.34,East,93,1.0,3.0,84,0.00,,,0.00,weatherlink.com 1.10,2013-09-18 00:00:00,
2013-09-17 20:15:00,45.8,42.0,30.34,East,94,0.0,1.0,87,0.00,,,0.00,weatherlink.com 1.10,2013-09-18 00:15:00,
2013-09-17 20:30:00,45.2,42.0,30.34,East,94,0.0,1.0,87,0.00,,,0.00,weatherlink.com 1.10,2013-09-18 00:30:00,
2013-09-17 20:45:00,44.2,41.0,30.34,East,94,0.0,2.0,89,0.00,,,0.00,weatherlink.com 1.10,2013-09-18 00:45:00,
2013-09-17 21:00:00,44.0,41.0,30.34,East,94,0.0,2.0,89,0.00,,,0.00,weatherlink.com 1.10,2013-09-18 01:00:00,
2013-09-17 21:15:00,43.3,40.0,30.34,ESE,105,0.0,1.0,89,0.00,,,0.00,weatherlink.com 1.10,2013-09-18 01:15:00,
2013-09-17 21:30:00,42.7,40.0,30.34,ESE,105,0.0,1.0,90,0.00,,,0.00,weatherlink.com 1.10,2013-09-18 01:30:00,
2013-09-17 21:45:00,42.3,40.0,30.34,ESE,113,1.0,2.0,90,0.00,,,0.00,weatherlink.com 1.10,2013-09-18 01:45:00,
2013-09-17 22:00:00,41.9,40.0,30.34,ESE,111,1.0,3.0,91,0.00,,,0.00,weatherlink.com 1.10,2013-09-18 02:00:00,
2013-09-17 22:15:00,41.5,39.0,30.35,ESE,111,0.0,1.0,90,0.00,,,0.00,weatherlink.com 1.10,2013-09-18 02:15:00,
2013-09-17 22:30:00,40.7,38.0,30.35,ESE,111,0.0,2.0,91,0.00,,,0.00,weatherlink.com 1.10,2013-09-18 02:30:00,
2013-09-17 22:45:00,40.2,38.0,30.35,ESE,111,0.0,1.0,91,0.00,,,0.00,weatherlink.com 1.10,2013-09-18 02:45:00,
2013-09-17 23:00:00,39.6,38.0,30.35,ESE,111,0.0,1.0,92,0.00,,,0.00,weatherlink.com 1.10,2013-09-18 03:00:00,
2013-09-17 23:15:00,39.3,38.0,30.34,ESE,111,0.0,2.0,93,0.00,,,0.00,weatherlink.com 1.10,2013-09-18 03:15:00,
2013-09-17 23:30:00,39.3,38.0,30.34,ESE,111,2.0,2.0,93,0.00,,,0.00,weatherlink.com 1.10,2013-09-18 03:30:00,
2013-09-17 23:45:00,39.0,37.0,30.34,ESE,114,0.0,1.0,93,0.00,,,0.00,weatherlink.com 1.10,2013-09-18 03:45:00,